[[{"header":{"parameterUnit":"m.s-1","parameterCategory":1,"la1":30.2991,"la2":30.254,"lo1":-89.0895,"lo2":-89.0444,"dy":0.0017,"dx":0.0017,"nx":28,"ny":28,"refTime":"2024-06-24T21:00:00:Z","depth":0,"parameterNumber":2,"parameterNumberName":"U-component_of_WINDS"},"data":[0,0,0,0,0,0,0,0,0,0,0,0,0,0,0,0,0,0,0,0,0,0,0,0,0,0,0,0,0,0,0,0,0,0,0,0,0,0,0,0,0,0,0,0,0,0,0,0,0,0,0,0,0,0,0,0,0,0,2.1925,2.1926,0,2.2086,2.2088,2.2089,2.207,2.2067,2.2064,2.2062,2.2235,2.2241,2.2248,0,0,0,0,0,0,0,0,0,0,0,0,0,2.1607,2.1613,2.1925,2.1927,2.1929,2.2085,2.2088,2.209,2.207,2.2067,2.2064,2.2061,2.2232,2.2241,2.2249,0,0,0,0,0,0,0,0,0,0,0,0,0,2.1755,2.1615,2.1924,2.1937,2.194,2.2085,2.2088,2.2091,2.2071,2.2067,2.2063,2.2059,2.2229,2.224,2.225,2.2394,0,0,2.2283,2.2287,0,0,0,0,0,0,0,0,2.1746,2.1766,2.1934,2.1937,2.194,2.2053,2.2039,2.2193,2.2072,2.2022,2.2062,2.2057,2.2178,2.2193,2.2232,2.2403,2.241,2.2283,2.229,2.2294,2.2297,0,0,0,0,0,0,0,2.1736,2.1759,2.1989,2.1936,2.194,2.1938,2.1954,2.2068,2.212,2.2026,2.2024,2.2043,2.2179,2.2222,2.2236,2.2412,2.2283,2.2293,2.2299,2.2303,2.2711,2.2715,0,0,0,0,0,0,2.1721,2.1751,2.1983,2.1993,2.1831,2.1947,2.1965,2.2021,2.2119,2.213,2.2047,2.2042,2.2205,2.2223,2.2242,2.2417,2.2294,2.2304,2.231,2.2706,2.2712,2.2717,0,0,0,0,0,0,2.1715,2.1742,2.1977,2.1872,2.1902,2.1956,2.2019,2.2026,2.2069,2.2135,2.2145,2.208,2.2203,2.2227,2.2356,2.2423,2.2309,2.2319,2.2701,2.2708,2.2714,2.2768,0,0,0,0,0,0,2.1706,2.174,2.1794,2.1873,2.1907,2.2087,2.2023,2.2032,2.2086,2.2081,2.2168,2.2179,2.2202,2.234,2.2367,2.2435,2.2327,2.2695,2.2704,2.2712,2.2761,2.2776,2.2789,0,0,0,0,0,2.1694,2.1804,2.1796,2.1825,2.1975,2.209,2.211,2.2132,2.2091,2.2147,2.2189,2.2176,2.2411,2.2354,2.2383,2.2456,2.2691,2.2702,2.2711,2.2755,2.2773,2.2789,0,0,0,0,0,0,2.1733,2.1815,2.1807,2.1945,2.2011,2.2087,2.2157,2.2151,2.2231,2.2223,2.2249,2.2269,2.24,2.2441,2.2376,2.2601,2.2546,2.2563,2.2569,2.2587,2.2601,2.2588,2.2336,0,0,0,0,0,2.1757,2.1842,2.191,2.2025,2.2058,2.2102,2.2153,2.2164,2.2234,2.2262,2.2314,2.2385,2.2475,2.2533,2.262,2.2767,2.2786,2.2832,2.2846,2.2857,2.2871,2.2953,2.2974,2.275,2.275,2.2749,0,0,2.1809,2.1864,2.1916,2.2034,2.2086,2.2175,2.2126,2.2222,2.2289,2.2278,2.2402,2.2443,2.2524,2.2663,2.2727,2.2702,2.2937,2.287,2.2878,2.2886,2.2965,2.2986,2.3005,2.2757,2.2755,2.2754,0,0,2.1948,2.1998,2.2099,2.2152,2.2231,2.2259,2.2284,2.2361,2.2387,2.2512,2.2506,2.2587,2.2741,2.2799,2.2848,2.301,2.3002,2.3038,2.3112,2.3191,2.3209,2.3224,2.3282,2.3303,2.3052,2.3052,2.3052,0,2.2002,2.2134,2.2153,2.225,2.2303,2.2295,2.2399,2.245,2.2554,2.2592,2.2561,2.2754,2.2808,2.296,2.3,2.304,2.307,2.3028,2.3204,2.322,2.3235,2.3291,2.3312,2.3056,2.3055,2.3055,2.3055,0,2.2197,2.2289,2.2362,2.246,2.2521,2.2622,2.2658,2.2718,2.2724,2.2757,2.2885,2.295,2.3049,2.3086,2.3094,2.324,2.3222,2.3198,2.3143,2.326,2.3313,2.3334,2.3061,2.306,2.3059,2.3058,0,0,2.2364,2.2471,2.2498,2.2542,2.2629,2.2701,2.2803,2.2897,2.2949,2.3022,2.3108,2.3238,2.3216,2.3272,2.3287,2.3357,2.3481,2.3324,2.3326,2.3351,2.3647,2.3664,2.3688,2.3476,2.348,2.3483,2.364,0,2.2511,2.2687,2.2707,2.2865,2.2951,2.2945,2.3033,2.3097,2.3131,2.3211,2.3249,2.3341,2.3305,2.3339,2.3407,2.3451,2.3541,2.344,2.3558,2.3562,2.3537,2.3716,2.3734,2.3878,2.3661,2.3664,2.3667,0,2.2706,2.2781,2.2947,2.3022,2.3059,2.3137,2.3226,2.3302,2.3375,2.3395,2.3458,2.3464,2.3571,2.3512,2.366,2.3591,2.3641,2.367,2.3677,2.3688,2.3621,2.3732,2.3925,2.3946,2.3699,2.3697,2.3694,0,2.281,2.2954,2.3071,2.311,2.3201,2.3256,2.3297,2.3367,2.3422,2.3501,2.3538,2.3629,2.3679,2.375,2.3781,2.3736,2.3928,2.3872,2.3949,2.3948,2.3989,2.3986,2.4193,2.4022,2.4022,2.4022,2.4021,0,2.2972,2.3073,2.3119,2.3192,2.3306,2.333,2.3443,2.3482,2.3544,2.3626,2.3628,2.3704,2.3741,2.3824,2.385,2.3969,2.3992,2.4012,2.4017,2.4011,2.4009,2.4044,2.4034,2.4027,2.4026,2.4025,2.4024,0,2.3107,2.3142,2.327,2.3345,2.3367,2.3448,2.3513,2.3584,2.3617,2.372,2.3746,2.3799,2.3897,2.3935,2.4056,2.4073,2.421,2.4208,2.4185,2.4186,2.426,2.4253,2.4497,2.453,2.4338,2.434,2.4341,0,2.3207,2.3285,2.3369,2.3422,2.3464,2.3551,2.3607,2.3635,2.3694,2.3784,2.3845,2.3942,2.4021,2.4178,2.4229,2.4322,2.4322,2.4401,2.4336,2.4327,2.4322,2.4317,2.4325,2.4413,2.4414,2.4416,2.4417,0,2.3382,2.3395,2.3475,2.3562,2.3629,2.3699,2.3767,2.3812,2.385,2.3917,2.4016,2.4077,2.4199,2.4297,2.4392,2.4437,2.4434,2.4438,2.446,2.4454,2.4437,2.4447,2.4217,2.4432,2.443,2.4429,2.4428,2.4428,2.3502,2.3571,2.364,2.373,2.3784,2.3848,2.3918,2.396,2.4042,2.4142,2.4154,2.4261,2.4334,2.4461,2.451,2.4595,2.4575,2.4608,2.4616,2.4623,2.4628,2.4424,2.4613,2.4613,2.4613,2.4612,2.4612,0,2.3676,2.3721,2.3803,2.3897,2.3968,2.3958,2.4034,2.4094,2.4187,2.4254,2.4332,2.4446,2.4541,2.4599,2.4694,2.4751,2.4752,2.4775,2.4771,2.4781,2.4641,2.4612,2.4772,2.4772,2.4772,2.4772,2.4772,2.4772,2.3775,2.389,2.3912,2.4056,2.41,2.4203,2.4247,2.4307,2.436,2.4487,2.4565,2.4601,2.4666,2.4766,2.4852,2.4867,2.4902,2.4927,2.494,2.4808,2.4791,2.4775,2.4748,2.4934,2.4934,2.5073,2.5074,2.5075]},{"header":{"parameterUnit":"m.s-1","parameterCategory":1,"la1":30.2991,"la2":30.254,"lo1":-89.0895,"lo2":-89.0444,"dy":0.0017,"dx":0.0017,"nx":28,"ny":28,"refTime":"2024-06-24T21:00:00:Z","depth":0,"parameterNumber":3,"parameterNumberName":"V-component_of_WINDS"},"data":[0,0,0,0,0,0,0,0,0,0,0,0,0,0,0,0,0,0,0,0,0,0,0,0,0,0,0,0,0,0,0,0,0,0,0,0,0,0,0,0,0,0,0,0,0,0,0,0,0,0,0,0,0,0,0,0,0,0,3.4008,3.4009,0,3.4065,3.4066,3.4066,3.4123,3.4124,3.4124,3.4125,3.4178,3.4179,3.4179,0,0,0,0,0,0,0,0,0,0,0,0,0,3.3942,3.3943,3.4008,3.4009,3.401,3.4065,3.4066,3.4067,3.4123,3.4124,3.4125,3.4126,3.4178,3.4179,3.418,0,0,0,0,0,0,0,0,0,0,0,0,0,3.3982,3.3944,3.4008,3.4045,3.4048,3.4065,3.4066,3.4067,3.4123,3.4124,3.4125,3.4126,3.4178,3.4179,3.418,3.4163,0,0,3.4183,3.4183,0,0,0,0,0,0,0,0,3.398,3.3984,3.4039,3.4042,3.4046,3.4088,3.4062,3.4099,3.4122,3.4094,3.4125,3.4127,3.4147,3.4151,3.4159,3.4166,3.4168,3.4183,3.4184,3.4184,3.4184,0,0,0,0,0,0,0,3.3977,3.3982,3.4031,3.4039,3.4044,3.4056,3.4063,3.4069,3.4113,3.4097,3.4101,3.4107,3.4149,3.4157,3.416,3.4169,3.4183,3.4184,3.4184,3.4185,3.4162,3.4161,0,0,0,0,0,0,3.3969,3.398,3.4029,3.4032,3.4015,3.4056,3.4064,3.4074,3.4113,3.4121,3.4106,3.411,3.4155,3.4159,3.4162,3.4143,3.4184,3.4185,3.4186,3.4163,3.4162,3.4161,0,0,0,0,0,0,3.3968,3.3973,3.4027,3.4007,3.4015,3.4056,3.4066,3.4074,3.4082,3.4121,3.4128,3.4107,3.4156,3.4161,3.4162,3.4146,3.4185,3.4186,3.4165,3.4163,3.4161,3.4106,0,0,0,0,0,0,3.3966,3.3972,3.3968,3.4007,3.4016,3.4027,3.4066,3.4074,3.4085,3.409,3.4123,3.413,3.4157,3.416,3.4163,3.4148,3.4187,3.4166,3.4164,3.4162,3.411,3.4103,3.4097,0,0,0,0,0,3.3963,3.395,3.3968,3.3973,3.4012,3.4026,3.4031,3.4065,3.4083,3.4078,3.4102,3.4129,3.4148,3.416,3.4164,3.4149,3.4167,3.4165,3.4162,3.4113,3.4104,3.4097,0,0,0,0,0,0,3.3907,3.3956,3.3976,3.3975,3.3996,3.4036,3.403,3.4055,3.407,3.4074,3.4113,3.412,3.4116,3.4133,3.4146,3.4133,3.4161,3.4159,3.4122,3.4115,3.4109,3.4103,3.4188,0,0,0,0,0,3.3894,3.3904,3.3946,3.3941,3.3951,3.3988,3.3996,3.402,3.4043,3.4052,3.4076,3.4096,3.4106,3.4112,3.4124,3.4113,3.412,3.4105,3.4098,3.4093,3.4089,3.4082,3.4075,3.4151,3.4151,3.4151,0,0,3.3868,3.3897,3.39,3.393,3.395,3.3956,3.3996,3.4002,3.4006,3.4052,3.4055,3.4073,3.4098,3.4092,3.4091,3.4106,3.407,3.4089,3.4085,3.4084,3.4079,3.4071,3.4065,3.415,3.415,3.415,0,0,3.3824,3.3848,3.3845,3.3864,3.3893,3.3918,3.3917,3.3953,3.3967,3.3971,3.4005,3.401,3.4028,3.4043,3.4053,3.4013,3.4037,3.4016,3.3981,3.3974,3.3968,3.3963,3.3945,3.3939,3.4013,3.4013,3.4013,0,3.3788,3.3801,3.384,3.3844,3.3855,3.3898,3.3894,3.391,3.394,3.3946,3.3963,3.3984,3.4004,3.4001,3.3992,3.3999,3.3997,3.4011,3.3966,3.3961,3.3957,3.3941,3.3935,3.401,3.401,3.4011,3.4011,0,3.3753,3.3762,3.3756,3.3786,3.3796,3.3796,3.3832,3.3838,3.3861,3.3884,3.3885,3.391,3.3927,3.3929,3.3951,3.3928,3.3936,3.3959,3.3987,3.3946,3.3931,3.3926,3.4006,3.4007,3.4008,3.4008,0,0,3.3674,3.3725,3.3722,3.3735,3.377,3.3776,3.3776,3.3794,3.3797,3.3816,3.3816,3.3829,3.385,3.3861,3.3886,3.388,3.3843,3.3903,3.3904,3.3888,3.3816,3.3796,3.3789,3.386,3.3859,3.3858,3.3813,0,3.3634,3.3639,3.3673,3.3668,3.3674,3.3715,3.3715,3.3735,3.3756,3.3763,3.3786,3.3794,3.3823,3.3829,3.3825,3.3848,3.3828,3.3852,3.3856,3.3856,3.3846,3.3782,3.3761,3.3717,3.3808,3.3807,3.3806,0,3.3587,3.3604,3.3599,3.3632,3.3636,3.3636,3.3653,3.3661,3.3684,3.3699,3.3711,3.3739,3.3739,3.3768,3.3767,3.3783,3.3787,3.3798,3.3797,3.3796,3.3826,3.3776,3.3704,3.3696,3.3798,3.3799,3.3799,0,3.3525,3.3548,3.3547,3.3557,3.3596,3.3595,3.3611,3.3635,3.3642,3.3657,3.3662,3.3677,3.3684,3.3693,3.3723,3.3742,3.3718,3.3749,3.3728,3.3727,3.3718,3.3718,3.3643,3.3726,3.3726,3.3726,3.3727,0,3.3474,3.3469,3.3519,3.3518,3.3513,3.3552,3.3544,3.3564,3.3585,3.3587,3.3624,3.3624,3.3665,3.367,3.3693,3.3687,3.3691,3.3701,3.3707,3.3696,3.3694,3.3697,3.3699,3.3725,3.3725,3.3725,3.3726,0,3.3404,3.3438,3.3439,3.3477,3.3486,3.3479,3.351,3.351,3.3534,3.3535,3.3538,3.3574,3.3581,3.3613,3.3627,3.3643,3.3627,3.3641,3.362,3.3623,3.3598,3.3599,3.352,3.351,3.3602,3.3601,3.3601,0,3.3367,3.3364,3.3401,3.3406,3.3421,3.3428,3.3436,3.3474,3.348,3.3505,3.35,3.3511,3.3521,3.353,3.3556,3.3567,3.3579,3.355,3.358,3.3569,3.3574,3.3572,3.3571,3.3543,3.3541,3.3541,3.354,0,3.3298,3.3315,3.3326,3.3342,3.3351,3.3365,3.3382,3.3383,3.3425,3.343,3.3438,3.3446,3.3461,3.3469,3.3484,3.3499,3.3524,3.3531,3.3526,3.3513,3.3499,3.3502,3.3598,3.3531,3.3532,3.3533,3.3533,3.3534,3.3241,3.3239,3.3265,3.3275,3.3292,3.3306,3.3306,3.333,3.3338,3.3354,3.3376,3.338,3.3401,3.3424,3.3436,3.3439,3.3454,3.3448,3.3445,3.3442,3.3435,3.3502,3.3442,3.3443,3.3443,3.3443,3.3443,0,3.3171,3.319,3.3199,3.3221,3.3228,3.3255,3.3274,3.3277,3.3281,3.33,3.3309,3.3317,3.3325,3.3352,3.3363,3.336,3.3371,3.3361,3.3359,3.3361,3.3423,3.3425,3.3351,3.3351,3.3351,3.3351,3.3351,3.3351,3.3135,3.3132,3.3152,3.3156,3.3175,3.318,3.3188,3.32,3.3215,3.3223,3.323,3.3249,3.3269,3.3282,3.329,3.3297,3.3298,3.3282,3.3293,3.3349,3.3358,3.3366,3.3368,3.3283,3.3283,3.3231,3.323,3.323]}]]